Regional Weather Roundup
Issued by NWS

Home | Current Version | Previous Version | Text Only | Print | Product List | Glossary On
Versions: 1 2 3 4 5 6 7 8 9 10 11 12 13 14 15 16 17 18 19 20 21 22 23 24 25 26 27 28 29 30 31 32 33 34 35 36 37 38 39 40 41 42 43 44 45 46 47 48 49 50
000
ASUS42 KKEY 140410
RWRKEY

FLORIDA REGIONAL WEATHER ROUNDUP FOR THE FLORIDA KEYS
NATIONAL WEATHER SERVICE KEY WEST FLORIDA
1200 AM EDT MON JUL 14 2014

...SOUTH FLORIDA AND THE KEYS...

CITY           SKY/WX    TMP DP  RH WIND       PRES   REMARKS
FORT MYERS     CLOUDY    78  75  90 CALM      30.07S
SW REGIONAL AP MOCLDY    78  74  87 CALM      30.08S
NAPLES         MOCLDY    78  75  90 SE3       30.07F
MIAMI          PTCLDY    83  74  74 SE6       30.09F
WEST KENDALL   CLEAR     82  74  76 CALM      30.09F
HOMESTEAD      PTCLDY    79  48  33 S2        30.10S
MARATHON       CLEAR     84  73  69 E5        30.09R HX  90
BOCA CHICA NAS PTCLDY    83  75  77 SE8       30.09R HX  90
KEY WEST INTL  MOCLDY    85  76  74 SE8       30.09R HX  94

...INTERNATIONAL WEATHER...

CITY           SKY/WX    TMP DP  RH WIND       PRES   REMARKS
NASSAU BAHAMAS PTCLDY    82  75  78 E3        30.11
CANCUN MEXICO  PTCLDY    79  75  89 E7        30.08R
COZUMEL MEXICO MOCLDY    77  75  94 E3        30.07R

ADJACENT COASTAL WATERS...

STATION/POSITION TIME  SKY/WX   TEMP    WIND        PRES    WAVE
                                AIR SEA DIR/SP/G            HT/PER
                 (UTC)          (F)     (DEG/KT/KT) (MB)    (FT/S)
PULASKI SHOAL LI 0400            85      90/  6/  6 1018.6S
SAND KEY         0400            84     110/  9/ 11 1018.7S
SOMBRERO KEY     0400            84     100/ 11/ 13 1019.6R
LONG KEY         0300            85 88  110/  9/ 11 1019.8R
MOLASSES REEF    0400            83 85  120/ 15/ 16 1018.8F
FOWEY ROCKS      0400            84 85  120/ 11/ 13 1019.3F
Buoy 42080       NOT AVBL

$$



USA.gov is the U.S. government's official web portal to all federal, state and local government web resources and services.